#timestamp,LO_Frequency,Hit 
1503986415.8,286046996.0,N
1503986435.6,286046995.6,N
1503986455.4,286046997.9,N
1503986475.3,286046998.5,N
1503986495.1,286047000.9,N
1503986515.8,286047001.0,N
1503986535.7,286046998.2,N
1503986555.5,286046998.1,N
1503986575.3,286046996.9,N
1503986595.2,286046997.8,N
1503986615.9,286046997.0,N
1503986635.7,286046996.9,N
1503986655.6,286046996.5,N
1503986675.4,286046998.8,N
1503986695.2,286046999.1,N
1503986715.0,286046997.8,N
1503986715.9,286046997.8,N
1503986735.8,286046996.3,N
1503986755.6,286046996.3,N
1503986775.4,286046996.2,N
1503986795.3,286046997.7,N
1503986815.1,286046996.8,N
1503986816.0,286046996.8,N
1503986835.8,286046998.0,N
1503986855.7,286046999.2,N
1503986875.5,286047000.0,N
1503986895.3,286047002.0,N
1503986915.2,286046998.1,N
1503986935.9,286047002.6,N
1503986955.7,286047000.1,N
1503986975.6,286047000.8,N
1503986995.4,286046996.6,N
1503987015.2,286046997.2,N
1503987035.0,286046996.9,N
1503987036.0,286046996.9,N
1503987055.8,286046997.7,N
1503987075.6,286046995.4,N
1503987095.4,286046998.0,N
1503987115.3,286046997.8,N
1503987135.1,286046998.6,N
1503987155.8,286046999.3,N
1503987175.7,286046998.9,N
1503987195.5,286046998.2,N
1503987215.3,286046997.2,N
1503987235.2,286046996.5,N
1503987255.9,286046998.9,N
1503987275.7,286046999.1,N
1503987295.6,286047000.4,N
1503987315.4,286047000.4,N
1503987335.2,286046999.4,N
1503987355.0,286046996.8,N
1503987356.0,286046996.8,N
1503987375.8,286047000.8,N
1503987395.6,286046997.3,N
1503987415.4,286046997.5,N
1503987435.3,286046998.2,N
1503987455.1,286046997.6,N
1503987475.8,286046995.5,N
1503987495.7,286046999.0,N
1503987515.5,286046997.4,N
1503987535.3,286046999.3,N
1503987555.2,286046996.6,N
1503987575.9,286046999.1,N
1503987595.7,286046996.5,N
1503987615.6,286046997.2,N
1503987635.4,286046999.2,N
1503987655.2,286046997.3,N
1503987675.0,286046999.1,N
1503987676.0,286046999.1,N
1503987695.8,286046995.7,P
1503987715.6,286046999.2,N
1503987735.5,286046997.2,N
1503987755.3,286046996.7,N
1503987775.1,286046995.7,P
1503987795.9,286047000.0,N
1503987815.7,286047002.5,N
1503987835.5,286047001.0,N
1503987855.4,286047000.7,N
1503987875.2,286047000.1,N
1503987895.0,286047002.6,N
1503987895.9,286047002.6,N
1503987915.7,286047000.2,N
1503987935.6,286047000.8,N
1503987955.4,286047001.1,N
1503987975.2,286046998.5,N
1503987995.1,286046998.7,N
1503987996.0,286046998.7,N
1503988015.8,286046999.0,N
1503988035.6,286047000.2,N
1503988055.5,286047001.1,N
1503988075.3,286046999.1,N
1503988095.1,286046997.5,N
1503988115.9,286046997.9,N
1503988135.7,286046996.7,N
1503988155.5,286046996.8,N
1503988175.3,286046998.0,N
1503988195.2,286046999.1,N
1503988215.0,286046997.8,N
1503988215.9,286046997.8,N
1503988235.7,286046999.1,N
1503988255.7,286046998.6,N
1503988275.5,286046996.6,N
1503988295.3,286046997.9,N
1503988315.1,286046995.4,N
1503988335.9,286046996.1,N
1503988355.7,286046998.0,N
1503988375.5,286046995.2,N
1503988395.4,286046995.3,N
1503988415.2,286046996.6,N
1503988435.0,286046997.3,N
1503988435.9,286046997.3,N
1503988455.8,286046995.6,N
1503988475.6,286046995.5,N
1503988495.4,286046996.0,N
1503988515.3,286046994.3,P
1503988535.1,286046994.9,P
1503988555.8,286046999.3,N
1503988575.7,286046996.5,N
1503988595.5,286046999.2,N
1503988615.3,286046999.0,N
1503988635.2,286046996.8,N
1503988655.9,286046997.7,N
1503988675.7,286046998.8,N
1503988695.6,286047002.4,N
1503988715.4,286047003.9,N
1503988735.2,286047001.3,N
1503988755.0,286047003.7,N
1503988756.0,286047003.7,N
1503988775.8,286047000.4,N
1503988795.6,286046999.7,N
1503988815.4,286047002.7,N
1503988835.3,286047000.3,N
1503988855.1,286046998.8,N
1503988875.8,286046999.6,N
1503988895.7,286046998.8,N
1503988915.5,286046998.9,N
1503988935.3,286046998.1,N
1503988955.2,286046999.5,N
1503988975.9,286046996.6,N
1503988995.7,286046997.3,N
1503989015.6,286046995.3,N
1503989035.4,286046997.7,N
1503989055.2,286046993.8,N
1503989075.0,286046993.6,N
1503989076.0,286046993.6,N
1503989095.8,286046994.9,N
1503989115.6,286046997.2,N
1503989135.4,286046997.9,N
1503989155.3,286046995.4,N
1503989175.1,286046997.3,N
1503989195.8,286046999.1,N
1503989215.7,286046997.7,N
1503989235.5,286046998.7,N
1503989255.3,286046997.5,N
1503989275.2,286046997.6,N
1503989295.9,286046997.0,N
1503989315.7,286046998.0,N
1503989335.6,286046998.0,N
1503989355.4,286046997.5,N
1503989375.2,286046995.5,N
1503989395.0,286046997.3,N
1503989396.0,286046997.3,N
1503989415.8,286046997.3,N
1503989435.6,286046995.5,N
1503989455.4,286046995.6,N
1503989475.3,286046996.4,N
1503989495.1,286046996.4,N
1503989515.8,286046993.8,P
1503989535.7,286046998.0,N
1503989555.5,286046997.0,N
1503989575.3,286046999.3,N
1503989595.2,286046996.5,N
1503989615.9,286046997.5,N
1503989635.5,286046999.3,N
1503989655.4,286047000.7,N
1503989675.2,286047000.4,N
1503989695.0,286047002.4,N
1503989695.9,286047002.4,N
1503989715.8,286047001.2,N
1503989735.6,286046999.0,N
1503989755.4,286046998.7,N
1503989775.3,286046999.4,N
1503989795.1,286046998.7,N
1503989796.0,286046998.7,N
1503989815.8,286046998.2,N
1503989835.7,286046996.5,N
1503989855.5,286046996.8,N
1503989875.3,286046997.5,N
1503989895.2,286046999.1,N
1503989915.9,286046997.9,N
1503989935.7,286046995.7,N
1503989955.5,286046996.0,N
1503989975.4,286046994.7,N
1503989995.2,286046996.0,N
